Location: Newark
(5.0949°S, 42.8042°W)
Time: 14:49:16
(UTC+00:00)

Hubble Space Telescope - Pass Details

Date: 02 October 2019
Orbit: 536 x 540 km, 28.5° (Epoch: 17 October)

Event Time Altitude Azimuth Distance (km) Brightness Sun altitude
Exits shadow 07:27:10 26° 223° (SW) 1,067 1.9 -18.0°
Maximum altitude 07:27:47 27° 207° (SSW) 1,038 2.0 -17.8°
Drops below altitude 10° 07:31:19 10° 148° (SSE) 1,784 3.9 -16.9°
Sets 07:33:50 0° 136° (SE) 2,676 5.1 -16.3°
